Year,Month,Day,Hour,Minute,Value (Times are PST for insolation in W/m^2)
2020,12,11,00,00,0.00
2020,12,11,00,01,0.00
2020,12,11,00,02,0.00
2020,12,11,00,03,0.00
2020,12,11,00,04,0.00
2020,12,11,00,05,0.00
2020,12,11,00,06,0.00
2020,12,11,00,07,0.00
2020,12,11,00,08,0.00
2020,12,11,00,09,0.00
2020,12,11,00,10,0.00
2020,12,11,00,11,0.00
2020,12,11,00,12,0.00
2020,12,11,00,13,0.00
2020,12,11,00,14,0.00
2020,12,11,00,15,0.00
2020,12,11,00,16,0.00
2020,12,11,00,17,0.00
2020,12,11,00,18,0.00
2020,12,11,00,19,0.00
2020,12,11,00,20,0.00
2020,12,11,00,21,0.00
2020,12,11,00,22,0.00
2020,12,11,00,23,0.00
2020,12,11,00,24,0.00
2020,12,11,00,25,0.00
2020,12,11,00,26,0.00
2020,12,11,00,27,0.00
2020,12,11,00,28,0.00
2020,12,11,00,29,0.00
2020,12,11,00,30,0.00
2020,12,11,00,31,0.00
2020,12,11,00,32,0.00
2020,12,11,00,33,0.00
2020,12,11,00,34,0.00
2020,12,11,00,35,0.00
2020,12,11,00,36,0.00
2020,12,11,00,37,0.00
2020,12,11,00,38,0.00
2020,12,11,00,39,0.00
2020,12,11,00,40,0.00
2020,12,11,00,41,0.00
2020,12,11,00,42,0.00
2020,12,11,00,43,0.00
2020,12,11,00,44,0.00
2020,12,11,00,45,0.00
2020,12,11,00,46,0.00
2020,12,11,00,47,0.00
2020,12,11,00,48,0.00
2020,12,11,00,49,0.00
2020,12,11,00,50,0.00
2020,12,11,00,51,0.00
2020,12,11,00,52,0.00
2020,12,11,00,53,0.00
2020,12,11,00,54,0.00
2020,12,11,00,55,0.00
2020,12,11,00,56,0.00
2020,12,11,00,57,0.00
2020,12,11,00,58,0.00
2020,12,11,00,59,0.00
2020,12,11,01,00,0.00
2020,12,11,01,01,0.00
2020,12,11,01,02,0.00
2020,12,11,01,03,0.00
2020,12,11,01,04,0.00
2020,12,11,01,05,0.00
2020,12,11,01,06,0.00
2020,12,11,01,07,0.00
2020,12,11,01,08,0.00
2020,12,11,01,09,0.00
2020,12,11,01,10,0.00
2020,12,11,01,11,0.00
2020,12,11,01,12,0.00
2020,12,11,01,13,0.00
2020,12,11,01,14,0.00
2020,12,11,01,15,0.00
2020,12,11,01,16,0.00
2020,12,11,01,17,0.00
2020,12,11,01,18,0.00
2020,12,11,01,19,0.00
2020,12,11,01,20,0.00
2020,12,11,01,21,0.00
2020,12,11,01,22,0.00
2020,12,11,01,23,0.00
2020,12,11,01,24,0.00
2020,12,11,01,25,0.00
2020,12,11,01,26,0.00
2020,12,11,01,27,0.00
2020,12,11,01,28,0.00
2020,12,11,01,29,0.00
2020,12,11,01,30,0.00
2020,12,11,01,31,0.00
2020,12,11,01,32,0.00
2020,12,11,01,33,0.00
2020,12,11,01,34,0.00
2020,12,11,01,35,0.00
2020,12,11,01,36,0.00
2020,12,11,01,37,0.00
2020,12,11,01,38,0.00
2020,12,11,01,39,0.00
2020,12,11,01,40,0.00
2020,12,11,01,41,0.00
2020,12,11,01,42,0.00
2020,12,11,01,43,0.00
2020,12,11,01,44,0.00
2020,12,11,01,45,0.00
2020,12,11,01,46,0.00
2020,12,11,01,47,0.00
2020,12,11,01,48,0.00
2020,12,11,01,49,0.00
2020,12,11,01,50,0.00
2020,12,11,01,51,0.00
2020,12,11,01,52,0.00
2020,12,11,01,53,0.00
2020,12,11,01,54,0.00
2020,12,11,01,55,0.00
2020,12,11,01,56,0.00
2020,12,11,01,57,0.00
2020,12,11,01,58,0.00
2020,12,11,01,59,0.00
2020,12,11,02,00,0.00
2020,12,11,02,01,0.00
2020,12,11,02,02,0.00
2020,12,11,02,03,0.00
2020,12,11,02,04,0.00
2020,12,11,02,05,0.00
2020,12,11,02,06,0.00
2020,12,11,02,07,0.00
2020,12,11,02,08,0.00
2020,12,11,02,09,0.00
2020,12,11,02,10,0.00
2020,12,11,02,11,0.00
2020,12,11,02,12,0.00
2020,12,11,02,13,0.00
2020,12,11,02,14,0.00
2020,12,11,02,15,0.00
2020,12,11,02,16,0.00
2020,12,11,02,17,0.00
2020,12,11,02,18,0.00
2020,12,11,02,19,0.00
2020,12,11,02,20,0.00
2020,12,11,02,21,0.00
2020,12,11,02,22,0.00
2020,12,11,02,23,0.00
2020,12,11,02,24,0.00
2020,12,11,02,25,0.00
2020,12,11,02,26,0.00
2020,12,11,02,27,0.00
2020,12,11,02,28,0.00
2020,12,11,02,29,0.00
2020,12,11,02,30,0.00
2020,12,11,02,31,0.00
2020,12,11,02,32,0.00
2020,12,11,02,33,0.00
2020,12,11,02,34,0.00
2020,12,11,02,35,0.00
2020,12,11,02,36,0.00
2020,12,11,02,37,0.00
2020,12,11,02,38,0.00
2020,12,11,02,39,0.00
2020,12,11,02,40,0.00
2020,12,11,02,41,0.00
2020,12,11,02,42,0.00
2020,12,11,02,43,0.00
2020,12,11,02,44,0.00
2020,12,11,02,45,0.00
2020,12,11,02,46,0.00
2020,12,11,02,47,0.00
2020,12,11,02,48,0.00
2020,12,11,02,49,0.00
2020,12,11,02,50,0.00
2020,12,11,02,51,0.00
2020,12,11,02,52,0.00
2020,12,11,02,53,0.00
2020,12,11,02,54,0.00
2020,12,11,02,55,0.00
2020,12,11,02,56,0.00
2020,12,11,02,57,0.00
2020,12,11,02,58,0.00
2020,12,11,02,59,0.00
2020,12,11,03,00,0.00
2020,12,11,03,01,0.00
2020,12,11,03,02,0.00
2020,12,11,03,03,0.00
2020,12,11,03,04,0.00
2020,12,11,03,05,0.00
2020,12,11,03,06,0.00
2020,12,11,03,07,0.00
2020,12,11,03,08,0.00
2020,12,11,03,09,0.00
2020,12,11,03,10,0.00
2020,12,11,03,11,0.00
2020,12,11,03,12,0.00
2020,12,11,03,13,0.00
2020,12,11,03,14,0.00
2020,12,11,03,15,0.00
2020,12,11,03,16,0.00
2020,12,11,03,17,0.00
2020,12,11,03,18,0.00
2020,12,11,03,19,0.00
2020,12,11,03,20,0.00
2020,12,11,03,21,0.00
2020,12,11,03,22,0.00
2020,12,11,03,23,0.00
2020,12,11,03,24,0.00
2020,12,11,03,25,0.00
2020,12,11,03,26,0.00
2020,12,11,03,27,0.00
2020,12,11,03,28,0.00
2020,12,11,03,29,0.00
2020,12,11,03,30,0.00
2020,12,11,03,31,0.00
2020,12,11,03,32,0.00
2020,12,11,03,33,0.00
2020,12,11,03,34,0.00
2020,12,11,03,35,0.00
2020,12,11,03,36,0.00
2020,12,11,03,37,0.00
2020,12,11,03,38,0.00
2020,12,11,03,39,0.00
2020,12,11,03,40,0.00
2020,12,11,03,41,0.00
2020,12,11,03,42,0.00
2020,12,11,03,43,0.00
2020,12,11,03,44,0.00
2020,12,11,03,45,0.00
2020,12,11,03,46,0.00
2020,12,11,03,47,0.00
2020,12,11,03,48,0.00
2020,12,11,03,49,0.00
2020,12,11,03,50,0.00
2020,12,11,03,51,0.00
2020,12,11,03,52,0.00
2020,12,11,03,53,0.00
2020,12,11,03,54,0.00
2020,12,11,03,55,0.00
2020,12,11,03,56,0.00
2020,12,11,03,57,0.00
2020,12,11,03,58,0.00
2020,12,11,03,59,0.00
2020,12,11,04,00,0.00
2020,12,11,04,01,0.00
2020,12,11,04,02,0.00
2020,12,11,04,03,0.00
2020,12,11,04,04,0.00
2020,12,11,04,05,0.00
2020,12,11,04,06,0.00
2020,12,11,04,07,0.00
2020,12,11,04,08,0.00
2020,12,11,04,09,0.00
2020,12,11,04,10,0.00
2020,12,11,04,11,0.00
2020,12,11,04,12,0.00
2020,12,11,04,13,0.00
2020,12,11,04,14,0.00
2020,12,11,04,15,0.00
2020,12,11,04,16,0.00
2020,12,11,04,17,0.00
2020,12,11,04,18,0.00
2020,12,11,04,19,0.00
2020,12,11,04,20,0.00
2020,12,11,04,21,0.00
2020,12,11,04,22,0.00
2020,12,11,04,23,0.00
2020,12,11,04,24,0.00
2020,12,11,04,25,0.00
2020,12,11,04,26,0.00
2020,12,11,04,27,0.00
2020,12,11,04,28,0.00
2020,12,11,04,29,0.00
2020,12,11,04,30,0.00
2020,12,11,04,31,0.00
2020,12,11,04,32,0.00
2020,12,11,04,33,0.00
2020,12,11,04,34,0.00
2020,12,11,04,35,0.00
2020,12,11,04,36,0.00
2020,12,11,04,37,0.00
2020,12,11,04,38,0.00
2020,12,11,04,39,0.00
2020,12,11,04,40,0.00
2020,12,11,04,41,0.00
2020,12,11,04,42,0.00
2020,12,11,04,43,0.00
2020,12,11,04,44,0.00
2020,12,11,04,45,0.00
2020,12,11,04,46,0.00
2020,12,11,04,47,0.00
2020,12,11,04,48,0.00
2020,12,11,04,49,0.00
2020,12,11,04,50,0.00
2020,12,11,04,51,0.00
2020,12,11,04,52,0.00
2020,12,11,04,53,0.00
2020,12,11,04,54,0.00
2020,12,11,04,55,0.00
2020,12,11,04,56,0.00
2020,12,11,04,57,0.00
2020,12,11,04,58,0.00
2020,12,11,04,59,0.00
2020,12,11,05,00,0.00
2020,12,11,05,01,0.00
2020,12,11,05,02,0.00
2020,12,11,05,03,0.00
2020,12,11,05,04,0.00
2020,12,11,05,05,0.00
2020,12,11,05,06,0.00
2020,12,11,05,07,0.00
2020,12,11,05,08,0.00
2020,12,11,05,09,0.00
2020,12,11,05,10,0.00
2020,12,11,05,11,0.00
2020,12,11,05,12,0.00
2020,12,11,05,13,0.00
2020,12,11,05,14,0.00
2020,12,11,05,15,0.00
2020,12,11,05,16,0.00
2020,12,11,05,17,0.00
2020,12,11,05,18,0.00
2020,12,11,05,19,0.00
2020,12,11,05,20,0.00
2020,12,11,05,21,0.00
2020,12,11,05,22,0.00
2020,12,11,05,23,0.00
2020,12,11,05,24,0.00
2020,12,11,05,25,0.00
2020,12,11,05,26,0.00
2020,12,11,05,27,0.00
2020,12,11,05,28,0.00
2020,12,11,05,29,0.00
2020,12,11,05,30,0.00
2020,12,11,05,31,0.00
2020,12,11,05,32,0.00
2020,12,11,05,33,0.00
2020,12,11,05,34,0.00
2020,12,11,05,35,0.00
2020,12,11,05,36,0.00
2020,12,11,05,37,0.00
2020,12,11,05,38,0.00
2020,12,11,05,39,0.00
2020,12,11,05,40,0.00
2020,12,11,05,41,0.00
2020,12,11,05,42,0.00
2020,12,11,05,43,0.00
2020,12,11,05,44,0.00
2020,12,11,05,45,0.00
2020,12,11,05,46,0.00
2020,12,11,05,47,0.00
2020,12,11,05,48,0.00
2020,12,11,05,49,0.00
2020,12,11,05,50,0.00
2020,12,11,05,51,0.00
2020,12,11,05,52,0.00
2020,12,11,05,53,0.00
2020,12,11,05,54,0.00
2020,12,11,05,55,0.00
2020,12,11,05,56,0.00
2020,12,11,05,57,0.00
2020,12,11,05,58,0.00
2020,12,11,05,59,0.00
2020,12,11,06,00,0.00
2020,12,11,06,01,0.00
2020,12,11,06,02,0.00
2020,12,11,06,03,0.00
2020,12,11,06,04,0.00
2020,12,11,06,05,0.00
2020,12,11,06,06,0.00
2020,12,11,06,07,0.00
2020,12,11,06,08,0.00
2020,12,11,06,09,0.00
2020,12,11,06,10,0.00
2020,12,11,06,11,0.00
2020,12,11,06,12,0.00
2020,12,11,06,13,0.00
2020,12,11,06,14,0.00
2020,12,11,06,15,0.00
2020,12,11,06,16,0.00
2020,12,11,06,17,0.00
2020,12,11,06,18,0.00
2020,12,11,06,19,0.00
2020,12,11,06,20,0.00
2020,12,11,06,21,0.00
2020,12,11,06,22,0.00
2020,12,11,06,23,0.00
2020,12,11,06,24,0.00
2020,12,11,06,25,0.00
2020,12,11,06,26,0.00
2020,12,11,06,27,0.00
2020,12,11,06,28,0.00
2020,12,11,06,29,0.00
2020,12,11,06,30,0.00
2020,12,11,06,31,0.00
2020,12,11,06,32,0.00
2020,12,11,06,33,0.00
2020,12,11,06,34,0.00
2020,12,11,06,35,0.00
2020,12,11,06,36,0.00
2020,12,11,06,37,0.00
2020,12,11,06,38,0.00
2020,12,11,06,39,0.00
2020,12,11,06,40,0.00
2020,12,11,06,41,0.00
2020,12,11,06,42,0.00
2020,12,11,06,43,0.00
2020,12,11,06,44,0.00
2020,12,11,06,45,0.00
2020,12,11,06,46,0.00
2020,12,11,06,47,0.00
2020,12,11,06,48,0.00
2020,12,11,06,49,0.00
2020,12,11,06,50,0.00
2020,12,11,06,51,0.00
2020,12,11,06,52,0.00
2020,12,11,06,53,0.00
2020,12,11,06,54,0.00
2020,12,11,06,55,0.00
2020,12,11,06,56,0.00
2020,12,11,06,57,0.00
2020,12,11,06,58,0.00
2020,12,11,06,59,0.00
2020,12,11,07,00,0.00
2020,12,11,07,01,0.00
2020,12,11,07,02,0.00
2020,12,11,07,03,0.00
2020,12,11,07,04,0.00
2020,12,11,07,05,0.00
2020,12,11,07,06,0.00
2020,12,11,07,07,0.00
2020,12,11,07,08,0.00
2020,12,11,07,09,0.00
2020,12,11,07,10,0.00
2020,12,11,07,11,0.00
2020,12,11,07,12,0.00
2020,12,11,07,13,0.00
2020,12,11,07,14,0.00
2020,12,11,07,15,0.00
2020,12,11,07,16,0.00
2020,12,11,07,17,0.00
2020,12,11,07,18,0.00
2020,12,11,07,19,0.00
2020,12,11,07,20,0.00
2020,12,11,07,21,0.00
2020,12,11,07,22,0.00
2020,12,11,07,23,0.00
2020,12,11,07,24,0.00
2020,12,11,07,25,0.00
2020,12,11,07,26,0.00
2020,12,11,07,27,0.00
2020,12,11,07,28,0.00
2020,12,11,07,29,0.00
2020,12,11,07,30,0.00
2020,12,11,07,31,0.00
2020,12,11,07,32,0.00
2020,12,11,07,33,0.00
2020,12,11,07,34,0.00
2020,12,11,07,35,0.00
2020,12,11,07,36,0.00
2020,12,11,07,37,0.00
2020,12,11,07,38,0.00
2020,12,11,07,39,0.00
2020,12,11,07,40,0.00
2020,12,11,07,41,0.00
2020,12,11,07,42,0.00
2020,12,11,07,43,0.00
2020,12,11,07,44,0.00
2020,12,11,07,45,0.00
2020,12,11,07,46,0.00
2020,12,11,07,47,0.00
2020,12,11,07,48,0.00
2020,12,11,07,49,0.00
2020,12,11,07,50,0.00
2020,12,11,07,51,0.00
2020,12,11,07,52,0.00
2020,12,11,07,53,0.00
2020,12,11,07,54,0.00
2020,12,11,07,55,0.00
2020,12,11,07,56,3.20
2020,12,11,07,57,5.00
2020,12,11,07,58,5.00
2020,12,11,07,59,5.30
2020,12,11,08,00,7.00
2020,12,11,08,01,7.00
2020,12,11,08,02,7.00
2020,12,11,08,03,8.20
2020,12,11,08,04,9.00
2020,12,11,08,05,9.00
2020,12,11,08,06,10.90
2020,12,11,08,07,11.00
2020,12,11,08,08,11.40
2020,12,11,08,09,12.00
2020,12,11,08,10,12.00
2020,12,11,08,11,12.00
2020,12,11,08,12,13.80
2020,12,11,08,13,14.00
2020,12,11,08,14,14.00
2020,12,11,08,15,14.70
2020,12,11,08,16,16.00
2020,12,11,08,17,16.00
2020,12,11,08,18,17.50
2020,12,11,08,19,18.00
2020,12,11,08,20,18.10
2020,12,11,08,21,19.00
2020,12,11,08,22,19.70
2020,12,11,08,23,21.00
2020,12,11,08,24,21.00
2020,12,11,08,25,22.50
2020,12,11,08,26,23.00
2020,12,11,08,27,23.00
2020,12,11,08,28,23.40
2020,12,11,08,29,25.00
2020,12,11,08,30,25.00
2020,12,11,08,31,25.60
2020,12,11,08,32,26.00
2020,12,11,08,33,26.00
2020,12,11,08,34,28.00
2020,12,11,08,35,28.00
2020,12,11,08,36,28.70
2020,12,11,08,37,30.00
2020,12,11,08,38,31.30
2020,12,11,08,39,32.00
2020,12,11,08,40,32.00
2020,12,11,08,41,33.20
2020,12,11,08,42,35.00
2020,12,11,08,43,36.50
2020,12,11,08,44,39.50
2020,12,11,08,45,41.30
2020,12,11,08,46,43.60
2020,12,11,08,47,45.80
2020,12,11,08,48,49.20
2020,12,11,08,49,51.50
2020,12,11,08,50,53.40
2020,12,11,08,51,55.10
2020,12,11,08,52,58.50
2020,12,11,08,53,60.00
2020,12,11,08,54,61.80
2020,12,11,08,55,63.00
2020,12,11,08,56,62.70
2020,12,11,08,57,62.00
2020,12,11,08,58,60.90
2020,12,11,08,59,60.00
2020,12,11,09,00,60.00
2020,12,11,09,01,60.00
2020,12,11,09,02,58.00
2020,12,11,09,03,58.00
2020,12,11,09,04,58.00
2020,12,11,09,05,59.10
2020,12,11,09,06,60.00
2020,12,11,09,07,60.00
2020,12,11,09,08,60.00
2020,12,11,09,09,60.20
2020,12,11,09,10,62.30
2020,12,11,09,11,63.70
2020,12,11,09,12,65.00
2020,12,11,09,13,63.80
2020,12,11,09,14,63.00
2020,12,11,09,15,62.20
2020,12,11,09,16,60.10
2020,12,11,09,17,60.50
2020,12,11,09,18,63.10
2020,12,11,09,19,67.00
2020,12,11,09,20,73.40
2020,12,11,09,21,81.20
2020,12,11,09,22,90.20
2020,12,11,09,23,98.60
2020,12,11,09,24,103.50
2020,12,11,09,25,102.00
2020,12,11,09,26,100.00
2020,12,11,09,27,97.40
2020,12,11,09,28,97.00
2020,12,11,09,29,97.00
2020,12,11,09,30,94.80
2020,12,11,09,31,92.50
2020,12,11,09,32,91.70
2020,12,11,09,33,97.50
2020,12,11,09,34,95.10
2020,12,11,09,35,91.00
2020,12,11,09,36,86.50
2020,12,11,09,37,88.30
2020,12,11,09,38,90.30
2020,12,11,09,39,91.00
2020,12,11,09,40,91.00
2020,12,11,09,41,89.20
2020,12,11,09,42,84.10
2020,12,11,09,43,76.70
2020,12,11,09,44,75.60
2020,12,11,09,45,72.00
2020,12,11,09,46,71.30
2020,12,11,09,47,70.00
2020,12,11,09,48,71.30
2020,12,11,09,49,75.80
2020,12,11,09,50,83.30
2020,12,11,09,51,90.30
2020,12,11,09,52,93.00
2020,12,11,09,53,93.70
2020,12,11,09,54,94.10
2020,12,11,09,55,91.30
2020,12,11,09,56,90.00
2020,12,11,09,57,90.00
2020,12,11,09,58,87.60
2020,12,11,09,59,84.00
2020,12,11,10,00,82.90
2020,12,11,10,01,79.10
2020,12,11,10,02,75.20
2020,12,11,10,03,70.30
2020,12,11,10,04,63.90
2020,12,11,10,05,57.80
2020,12,11,10,06,55.60
2020,12,11,10,07,53.70
2020,12,11,10,08,53.00
2020,12,11,10,09,53.00
2020,12,11,10,10,50.00
2020,12,11,10,11,46.30
2020,12,11,10,12,44.00
2020,12,11,10,13,44.00
2020,12,11,10,14,44.00
2020,12,11,10,15,44.00
2020,12,11,10,16,44.00
2020,12,11,10,17,45.50
2020,12,11,10,18,46.90
2020,12,11,10,19,49.00
2020,12,11,10,20,49.50
2020,12,11,10,21,50.30
2020,12,11,10,22,49.00
2020,12,11,10,23,50.30
2020,12,11,10,24,52.50
2020,12,11,10,25,53.80
2020,12,11,10,26,55.90
2020,12,11,10,27,56.50
2020,12,11,10,28,58.00
2020,12,11,10,29,56.90
2020,12,11,10,30,56.00
2020,12,11,10,31,54.50
2020,12,11,10,32,53.10
2020,12,11,10,33,50.80
2020,12,11,10,34,49.00
2020,12,11,10,35,49.70
2020,12,11,10,36,52.00
2020,12,11,10,37,53.60
2020,12,11,10,38,55.50
2020,12,11,10,39,54.20
2020,12,11,10,40,55.80
2020,12,11,10,41,54.00
2020,12,11,10,42,52.90
2020,12,11,10,43,51.00
2020,12,11,10,44,49.80
2020,12,11,10,45,49.00
2020,12,11,10,46,49.00
2020,12,11,10,47,51.00
2020,12,11,10,48,51.50
2020,12,11,10,49,53.00
2020,12,11,10,50,53.00
2020,12,11,10,51,53.00
2020,12,11,10,52,53.00
2020,12,11,10,53,53.00
2020,12,11,10,54,54.20
2020,12,11,10,55,56.50
2020,12,11,10,56,59.50
2020,12,11,10,57,62.50
2020,12,11,10,58,64.20
2020,12,11,10,59,66.50
2020,12,11,11,00,68.80
2020,12,11,11,01,70.30
2020,12,11,11,02,73.10
2020,12,11,11,03,77.60
2020,12,11,11,04,81.00
2020,12,11,11,05,94.30
2020,12,11,11,06,110.10
2020,12,11,11,07,121.40
2020,12,11,11,08,130.10
2020,12,11,11,09,136.80
2020,12,11,11,10,143.50
2020,12,11,11,11,146.90
2020,12,11,11,12,151.00
2020,12,11,11,13,158.20
2020,12,11,11,14,170.10
2020,12,11,11,15,174.50
2020,12,11,11,16,202.50
2020,12,11,11,17,243.80
2020,12,11,11,18,302.20
2020,12,11,11,19,270.60
2020,12,11,11,20,206.60
2020,12,11,11,21,198.40
2020,12,11,11,22,177.80
2020,12,11,11,23,175.00
2020,12,11,11,24,171.60
2020,12,11,11,25,171.00
2020,12,11,11,26,171.00
2020,12,11,11,27,171.00
2020,12,11,11,28,173.60
2020,12,11,11,29,176.80
2020,12,11,11,30,170.40
2020,12,11,11,31,194.10
2020,12,11,11,32,198.00
2020,12,11,11,33,176.40
2020,12,11,11,34,173.50
2020,12,11,11,35,174.00
2020,12,11,11,36,171.90
2020,12,11,11,37,170.00
2020,12,11,11,38,165.20
2020,12,11,11,39,160.10
2020,12,11,11,40,156.20
2020,12,11,11,41,152.10
2020,12,11,11,42,148.50
2020,12,11,11,43,146.10
2020,12,11,11,44,146.80
2020,12,11,11,45,149.70
2020,12,11,11,46,152.80
2020,12,11,11,47,155.00
2020,12,11,11,48,162.40
2020,12,11,11,49,165.00
2020,12,11,11,50,361.10
2020,12,11,11,51,394.00
2020,12,11,11,52,384.20
2020,12,11,11,53,378.00
2020,12,11,11,54,376.80
2020,12,11,11,55,328.80
2020,12,11,11,56,253.10
2020,12,11,11,57,188.90
2020,12,11,11,58,183.80
2020,12,11,11,59,246.00
2020,12,11,12,00,301.90
2020,12,11,12,01,348.40
2020,12,11,12,02,338.00
2020,12,11,12,03,338.00
2020,12,11,12,04,336.00
2020,12,11,12,05,336.00
2020,12,11,12,06,318.30
2020,12,11,12,07,252.90
2020,12,11,12,08,214.00
2020,12,11,12,09,290.60
2020,12,11,12,10,318.00
2020,12,11,12,11,210.90
2020,12,11,12,12,193.00
2020,12,11,12,13,197.80
2020,12,11,12,14,236.80
2020,12,11,12,15,232.20
2020,12,11,12,16,211.40
2020,12,11,12,17,230.80
2020,12,11,12,18,213.40
2020,12,11,12,19,237.80
2020,12,11,12,20,267.00
2020,12,11,12,21,317.70
2020,12,11,12,22,374.00
2020,12,11,12,23,370.30
2020,12,11,12,24,369.00
2020,12,11,12,25,369.00
2020,12,11,12,26,369.80
2020,12,11,12,27,373.40
2020,12,11,12,28,375.10
2020,12,11,12,29,379.20
2020,12,11,12,30,386.20
2020,12,11,12,31,332.30
2020,12,11,12,32,308.10
2020,12,11,12,33,318.30
2020,12,11,12,34,327.90
2020,12,11,12,35,283.00
2020,12,11,12,36,281.00
2020,12,11,12,37,281.00
2020,12,11,12,38,370.50
2020,12,11,12,39,461.20
2020,12,11,12,40,481.90
2020,12,11,12,41,491.90
2020,12,11,12,42,500.50
2020,12,11,12,43,507.80
2020,12,11,12,44,513.50
2020,12,11,12,45,522.70
2020,12,11,12,46,525.60
2020,12,11,12,47,520.10
2020,12,11,12,48,512.00
2020,12,11,12,49,510.00
2020,12,11,12,50,510.00
2020,12,11,12,51,508.60
2020,12,11,12,52,492.70
2020,12,11,12,53,454.80
2020,12,11,12,54,510.00
2020,12,11,12,55,455.50
2020,12,11,12,56,362.00
2020,12,11,12,57,362.00
2020,12,11,12,58,276.50
2020,12,11,12,59,238.20
2020,12,11,13,00,231.60
2020,12,11,13,01,226.10
2020,12,11,13,02,213.30
2020,12,11,13,03,198.80
2020,12,11,13,04,188.40
2020,12,11,13,05,185.80
2020,12,11,13,06,187.80
2020,12,11,13,07,173.10
2020,12,11,13,08,163.50
2020,12,11,13,09,156.20
2020,12,11,13,10,155.40
2020,12,11,13,11,184.00
2020,12,11,13,12,196.80
2020,12,11,13,13,200.90
2020,12,11,13,14,194.10
2020,12,11,13,15,187.30
2020,12,11,13,16,188.10
2020,12,11,13,17,182.10
2020,12,11,13,18,183.00
2020,12,11,13,19,226.50
2020,12,11,13,20,204.30
2020,12,11,13,21,140.40
2020,12,11,13,22,136.90
2020,12,11,13,23,152.50
2020,12,11,13,24,155.00
2020,12,11,13,25,140.20
2020,12,11,13,26,126.30
2020,12,11,13,27,114.60
2020,12,11,13,28,112.80
2020,12,11,13,29,111.50
2020,12,11,13,30,114.10
2020,12,11,13,31,118.00
2020,12,11,13,32,123.20
2020,12,11,13,33,128.70
2020,12,11,13,34,133.40
2020,12,11,13,35,136.90
2020,12,11,13,36,137.00
2020,12,11,13,37,137.00
2020,12,11,13,38,135.60
2020,12,11,13,39,132.70
2020,12,11,13,40,130.50
2020,12,11,13,41,128.30
2020,12,11,13,42,132.30
2020,12,11,13,43,145.80
2020,12,11,13,44,164.90
2020,12,11,13,45,144.10
2020,12,11,13,46,148.60
2020,12,11,13,47,197.90
2020,12,11,13,48,195.50
2020,12,11,13,49,190.80
2020,12,11,13,50,215.90
2020,12,11,13,51,225.40
2020,12,11,13,52,224.70
2020,12,11,13,53,220.00
2020,12,11,13,54,218.50
2020,12,11,13,55,216.30
2020,12,11,13,56,212.80
2020,12,11,13,57,207.20
2020,12,11,13,58,202.00
2020,12,11,13,59,201.00
2020,12,11,14,00,199.40
2020,12,11,14,01,199.00
2020,12,11,14,02,199.90
2020,12,11,14,03,200.60
2020,12,11,14,04,204.80
2020,12,11,14,05,208.50
2020,12,11,14,06,213.50
2020,12,11,14,07,218.50
2020,12,11,14,08,222.20
2020,12,11,14,09,224.80
2020,12,11,14,10,227.30
2020,12,11,14,11,230.00
2020,12,11,14,12,228.90
2020,12,11,14,13,223.80
2020,12,11,14,14,219.30
2020,12,11,14,15,218.00
2020,12,11,14,16,219.70
2020,12,11,14,17,220.90
2020,12,11,14,18,218.20
2020,12,11,14,19,211.60
2020,12,11,14,20,209.00
2020,12,11,14,21,205.80
2020,12,11,14,22,202.50
2020,12,11,14,23,199.30
2020,12,11,14,24,198.80
2020,12,11,14,25,196.60
2020,12,11,14,26,193.90
2020,12,11,14,27,191.00
2020,12,11,14,28,190.00
2020,12,11,14,29,188.50
2020,12,11,14,30,186.30
2020,12,11,14,31,184.80
2020,12,11,14,32,182.50
2020,12,11,14,33,180.30
2020,12,11,14,34,178.50
2020,12,11,14,35,176.80
2020,12,11,14,36,174.50
2020,12,11,14,37,172.30
2020,12,11,14,38,170.80
2020,12,11,14,39,168.00
2020,12,11,14,40,164.30
2020,12,11,14,41,163.00
2020,12,11,14,42,161.20
2020,12,11,14,43,158.50
2020,12,11,14,44,158.00
2020,12,11,14,45,155.90
2020,12,11,14,46,154.60
2020,12,11,14,47,152.40
2020,12,11,14,48,150.00
2020,12,11,14,49,148.40
2020,12,11,14,50,146.50
2020,12,11,14,51,144.30
2020,12,11,14,52,141.90
2020,12,11,14,53,140.50
2020,12,11,14,54,138.40
2020,12,11,14,55,136.00
2020,12,11,14,56,134.40
2020,12,11,14,57,132.60
2020,12,11,14,58,130.20
2020,12,11,14,59,127.50
2020,12,11,15,00,122.40
2020,12,11,15,01,119.40
2020,12,11,15,02,115.50
2020,12,11,15,03,104.80
2020,12,11,15,04,92.60
2020,12,11,15,05,94.20
2020,12,11,15,06,97.90
2020,12,11,15,07,98.20
2020,12,11,15,08,103.80
2020,12,11,15,09,107.90
2020,12,11,15,10,107.80
2020,12,11,15,11,95.20
2020,12,11,15,12,78.20
2020,12,11,15,13,77.90
2020,12,11,15,14,87.00
2020,12,11,15,15,90.00
2020,12,11,15,16,90.00
2020,12,11,15,17,90.00
2020,12,11,15,18,88.50
2020,12,11,15,19,84.60
2020,12,11,15,20,83.80
2020,12,11,15,21,83.00
2020,12,11,15,22,83.00
2020,12,11,15,23,82.10
2020,12,11,15,24,74.60
2020,12,11,15,25,67.80
2020,12,11,15,26,68.70
2020,12,11,15,27,64.80
2020,12,11,15,28,61.80
2020,12,11,15,29,52.80
2020,12,11,15,30,38.30
2020,12,11,15,31,30.80
2020,12,11,15,32,33.70
2020,12,11,15,33,40.90
2020,12,11,15,34,45.20
2020,12,11,15,35,39.40
2020,12,11,15,36,30.50
2020,12,11,15,37,27.10
2020,12,11,15,38,26.00
2020,12,11,15,39,26.00
2020,12,11,15,40,26.00
2020,12,11,15,41,25.00
2020,12,11,15,42,24.50
2020,12,11,15,43,23.00
2020,12,11,15,44,22.00
2020,12,11,15,45,21.00
2020,12,11,15,46,21.00
2020,12,11,15,47,21.00
2020,12,11,15,48,21.00
2020,12,11,15,49,20.60
2020,12,11,15,50,19.00
2020,12,11,15,51,19.00
2020,12,11,15,52,18.40
2020,12,11,15,53,18.00
2020,12,11,15,54,18.00
2020,12,11,15,55,16.00
2020,12,11,15,56,16.00
2020,12,11,15,57,15.30
2020,12,11,15,58,14.00
2020,12,11,15,59,14.00
2020,12,11,16,00,12.50
2020,12,11,16,01,12.00
2020,12,11,16,02,12.00
2020,12,11,16,03,12.00
2020,12,11,16,04,12.00
2020,12,11,16,05,12.00
2020,12,11,16,06,11.40
2020,12,11,16,07,11.00
2020,12,11,16,08,11.00
2020,12,11,16,09,11.00
2020,12,11,16,10,10.50
2020,12,11,16,11,9.00
2020,12,11,16,12,9.00
2020,12,11,16,13,9.00
2020,12,11,16,14,7.50
2020,12,11,16,15,7.00
2020,12,11,16,16,7.00
2020,12,11,16,17,6.50
2020,12,11,16,18,5.00
2020,12,11,16,19,5.00
2020,12,11,16,20,5.00
2020,12,11,16,21,5.00
2020,12,11,16,22,5.00
2020,12,11,16,23,4.50
2020,12,11,16,24,0.00
2020,12,11,16,25,0.00
2020,12,11,16,26,0.00
2020,12,11,16,27,0.00
2020,12,11,16,28,0.00
2020,12,11,16,29,0.00
2020,12,11,16,30,0.00
2020,12,11,16,31,0.00
2020,12,11,16,32,0.00
2020,12,11,16,33,0.00
2020,12,11,16,34,0.00
2020,12,11,16,35,0.00
2020,12,11,16,36,0.00
2020,12,11,16,37,0.00
2020,12,11,16,38,0.00
2020,12,11,16,39,0.00
2020,12,11,16,40,0.00
2020,12,11,16,41,0.00
2020,12,11,16,42,0.00
2020,12,11,16,43,0.00
2020,12,11,16,44,0.00
2020,12,11,16,45,0.00
2020,12,11,16,46,0.00
2020,12,11,16,47,0.00
2020,12,11,16,48,0.00
2020,12,11,16,49,0.00
2020,12,11,16,50,0.00
2020,12,11,16,51,0.00
2020,12,11,16,52,0.00
2020,12,11,16,53,0.00
2020,12,11,16,54,0.00
2020,12,11,16,55,0.00
2020,12,11,16,56,0.00
2020,12,11,16,57,0.00
2020,12,11,16,58,0.00
2020,12,11,16,59,0.00
2020,12,11,17,00,0.00
2020,12,11,17,01,0.00
2020,12,11,17,02,0.00
2020,12,11,17,03,0.00
2020,12,11,17,04,0.00
2020,12,11,17,05,0.00
2020,12,11,17,06,0.00
2020,12,11,17,07,0.00
2020,12,11,17,08,0.00
2020,12,11,17,09,0.00
2020,12,11,17,10,0.00
2020,12,11,17,11,0.00
2020,12,11,17,12,0.00
2020,12,11,17,13,0.00
2020,12,11,17,14,0.00
2020,12,11,17,15,0.00
2020,12,11,17,16,0.00
2020,12,11,17,17,0.00
2020,12,11,17,18,0.00
2020,12,11,17,19,0.00
2020,12,11,17,20,0.00
2020,12,11,17,21,0.00
2020,12,11,17,22,0.00
2020,12,11,17,23,0.00
2020,12,11,17,24,0.00
2020,12,11,17,25,0.00
2020,12,11,17,26,0.00
2020,12,11,17,27,0.00
2020,12,11,17,28,0.00
2020,12,11,17,29,0.00
2020,12,11,17,30,0.00
2020,12,11,17,31,0.00
2020,12,11,17,32,0.00
2020,12,11,17,33,0.00